| time (UTC) | temp C | wind direction | speed KPH | gust KPH | rain 1hr cm | rain 24hr cm | rain mn cm | humidity % | barometer mb |
| 20260503071540 | 11 | 0 | 0.0 | 0.0 | 0.00 | 0.00 | 0.00 | 63 | 1012.1 |
| 20260503054557 | 10 | 0 | 3.2 | 12.9 | 0.00 | 0.00 | 0.00 | 61 | 1012.5 |
| 20260503053037 | 10 | 0 | 0.0 | 12.9 | 0.00 | 0.00 | 0.00 | 63 | 1012.6 |
| 20260503051535 | 10 | 0 | 3.2 | 11.3 | 0.00 | 0.00 | 0.00 | 64 | 1012.6 |
| 20260503050043 | 10 | 259 | 1.6 | 11.3 | 0.00 | 0.00 | 0.00 | 64 | 1012.5 |
| 20260503044542 | 10 | 237 | 0.0 | 12.9 | 0.00 | 0.00 | 0.00 | 63 | 1012.3 |
| 20260503043050 | 10 | 234 | 8.0 | 14.5 | 0.00 | 0.00 | 0.00 | 65 | 1012.3 |
| 20260503041538 | 10 | 0 | 1.6 | 11.3 | 0.00 | 0.00 | 0.00 | 64 | 1012.3 |
| 20260503040039 | 10 | 0 | 1.6 | 17.7 | 0.00 | 0.00 | 0.00 | 65 | 1012.3 |
| 20260503034541 | 10 | 0 | 1.6 | 12.9 | 0.00 | 0.00 | 0.00 | 65 | 1012.4 |
| 20260503033034 | 10 | 246 | 3.2 | 17.7 | 0.00 | 0.00 | 0.00 | 65 | 1012.3 |
| 20260503031541 | 10 | 252 | 4.8 | 16.1 | 0.00 | 0.00 | 0.00 | 65 | 1012.3 |
| 20260503030041 | 10 | 239 | 4.8 | 20.9 | 0.00 | 0.00 | 0.00 | 66 | 1012.4 |
| 20260503024538 | 10 | 238 | 11.3 | 19.3 | 0.00 | 0.00 | 0.00 | 66 | 1012.5 |
| 20260503023037 | 11 | 218 | 11.3 | 20.9 | 0.00 | 0.00 | 0.00 | 64 | 1012.5 |
| 20260503021535 | 11 | 268 | 0.0 | 11.3 | 0.00 | 0.00 | 0.00 | 63 | 1012.4 |
| 20260503020034 | 10 | 277 | 0.0 | 6.4 | 0.00 | 0.00 | 0.00 | 66 | 1012.4 |
| 20260503014538 | 10 | 0 | 1.6 | 4.8 | 0.00 | 0.00 | 0.00 | 67 | 1012.7 |
| 20260503013042 | 10 | 0 | 0.0 | 0.0 | 0.00 | 0.00 | 0.00 | 69 | 1012.8 |
| 20260503011537 | 10 | 0 | 0.0 | 0.0 | 0.00 | 0.00 | 0.00 | 65 | 1012.9 |
| 20260503010038 | 10 | 0 | 0.0 | 4.8 | 0.00 | 0.00 | 0.00 | 66 | 1013.1 |
| 20260503004600 | 10 | 266 | 1.6 | 6.4 | 0.00 | 0.00 | 0.00 | 66 | 1013.4 |
| 20260503003045 | 10 | 0 | 0.0 | 4.8 | 0.00 | 0.00 | 0.00 | 68 | 1013.5 |
| 20260503001546 | 10 | 0 | 0.0 | 11.3 | 0.00 | 0.00 | 0.00 | 67 | 1013.6 |
| 20260503000044 | 10 | 302 | 3.2 | 14.5 | 0.00 | 0.00 | 0.00 | 69 | 1013.8 |
| 20260502234549 | 10 | 302 | 4.8 | 11.3 | 0.00 | 0.00 | 0.00 | 72 | 1013.8 |
| 20260502233041 | 9 | 0 | 0.0 | 0.0 | 0.00 | 0.00 | 0.00 | 73 | 1014.3 |
| 20260502231542 | 9 | 0 | 0.0 | 0.0 | 0.00 | 0.00 | 0.00 | 74 | 1014.3 |
| 20260502230040 | 9 | 0 | 0.0 | 0.0 | 0.00 | 0.00 | 0.00 | 73 | 1014.4 |
| 20260502224544 | 9 | 0 | 0.0 | 0.0 | 0.00 | 0.00 | 0.00 | 73 | 1014.5 |
| 20260502223042 | 9 | 0 | 0.0 | 0.0 | 0.00 | 0.00 | 0.00 | 74 | 1014.5 |
| 20260502221537 | 10 | 0 | 0.0 | 0.0 | 0.00 | 0.00 | 0.00 | 74 | 1014.6 |
| 20260502220039 | 10 | 0 | 0.0 | 0.0 | 0.00 | 0.00 | 0.00 | 74 | 1014.7 |
| 20260502214553 | 10 | 0 | 0.0 | 0.0 | 0.00 | 0.00 | 0.00 | 74 | 1014.8 |
| 20260502213039 | 10 | 0 | 0.0 | 0.0 | 0.00 | 0.00 | 0.00 | 73 | 1014.7 |
| 20260502211541 | 10 | 0 | 0.0 | 4.8 | 0.00 | 0.00 | 0.00 | 72 | 1014.9 |
| 20260502210048 | 10 | 0 | 0.0 | 6.4 | 0.00 | 0.00 | 0.00 | 71 | 1015.1 |
| 20260502204537 | 10 | 0 | 0.0 | 0.0 | 0.00 | 0.00 | 0.00 | 71 | 1015.0 |
| 20260502203046 | 10 | 0 | 0.0 | 0.0 | 0.00 | 0.00 | 0.00 | 70 | 1015.0 |
| 20260502201536 | 10 | 0 | 0.0 | 3.2 | 0.00 | 0.00 | 0.00 | 69 | 1014.8 |
| 20260502200044 | 11 | 0 | 0.0 | 4.8 | 0.00 | 0.00 | 0.00 | 69 | 1014.8 |
| 20260502194540 | 10 | 0 | 0.0 | 0.0 | 0.00 | 0.00 | 0.00 | 68 | 1014.8 |
| 20260502193042 | 11 | 0 | 0.0 | 0.0 | 0.00 | 0.00 | 0.00 | 71 | 1014.6 |
| 20260502191540 | 11 | 0 | 0.0 | 0.0 | 0.00 | 0.00 | 0.00 | 75 | 1014.5 |
| 20260502190043 | 11 | 0 | 0.0 | 1.6 | 0.00 | 0.00 | 0.00 | 74 | 1014.3 |
| 20260502184539 | 11 | 0 | 0.0 | 1.6 | 0.00 | 0.00 | 0.00 | 76 | 1014.3 |
| 20260502183039 | 12 | 0 | 0.0 | 0.0 | 0.00 | 0.00 | 0.00 | 77 | 1014.2 |
| 20260502181544 | 12 | 0 | 0.0 | 0.0 | 0.00 | 0.00 | 0.00 | 76 | 1014.2 |
| 20260502163048 | 15 | 0 | 0.0 | 8.0 | 0.00 | 0.00 | 0.00 | 71 | 1014.8 |
| 20260502161536 | 15 | 0 | 0.0 | 0.0 | 0.00 | 0.00 | 0.00 | 70 | 1014.9 |
| 20260502151553 | 15 | 0 | 0.0 | 11.3 | 0.00 | 0.00 | 0.00 | 69 | 1015.2 |
| 20260502123047 | 16 | 186 | 1.6 | 12.9 | 0.00 | 0.00 | 0.00 | 67 | 1016.6 |
| 20260502121540 | 17 | 0 | 4.8 | 12.9 | 0.00 | 0.00 | 0.00 | 65 | 1016.6 |
| 20260502114537 | 16 | 190 | 4.8 | 17.7 | 0.00 | 0.00 | 0.00 | 66 | 1016.9 |
| 20260502113036 | 16 | 188 | 4.8 | 14.5 | 0.00 | 0.00 | 0.00 | 65 | 1016.9 |
| 20260502111538 | 16 | 184 | 1.6 | 14.5 | 0.00 | 0.00 | 0.00 | 64 | 1017.2 |
| 20260502110039 | 16 | 0 | 3.2 | 16.1 | 0.00 | 0.00 | 0.00 | 64 | 1017.1 |
| 20260502104538 | 16 | 165 | 6.4 | 17.7 | 0.00 | 0.00 | 0.00 | 61 | 1017.4 |
| 20260502103037 | 16 | 180 | 3.2 | 14.5 | 0.00 | 0.00 | 0.00 | 63 | 1017.5 |
| 20260502101540 | 16 | 0 | 4.8 | 14.5 | 0.00 | 0.00 | 0.00 | 57 | 1017.6 |